Location: Castelbiague
(43.0361°N, 0.9246°E)
Time: 08:41:27
(UTC+00:00)

KORONAS-FOTON - Pass Details

Date: 17 June 2021
Orbit: 506 x 530 km, 82.4° (Epoch: 03 August)

Event Time Altitude Azimuth Distance (km) Brightness Sun altitude
Exits shadow 21:21:27 12° 196° (SSW) 1,581 5.9 -14.5°
Maximum altitude 21:24:51 69° 279° (W) 552 4.0 -14.9°
Drops below altitude 10° 21:28:38 10° 3° (N) 1,735 7.2 -15.3°
Sets 21:30:47 0° 6° (N) 2,623 8.2 -15.5°
